FW8254 Weather Reports


time (UTC)temp
F
wind
direction
speed
knots
gust
knots
rain 1hr
in
rain 24hr
in
rain mn
in
humidity
%
barometer
mb
20260905064716 78 39 0.0 0.0 0.00 0.00 0.00 86 1007.8
20260905064212 79 40 0.9 1.7 0.00 0.00 0.00 86 1007.7
20260905063710 79 18 0.9 1.7 0.00 0.00 0.00 86 1007.8
20260905063207 79 343 1.7 1.7 0.00 0.00 0.00 86 1007.8
20260905062703 78 33 0.0 0.9 0.00 0.00 0.00 86 1007.9
20260905062202 78 32 0.0 0.9 0.00 0.00 0.00 86 1007.9
20260905061656 79 45 0.9 0.9 0.00 0.00 0.00 85 1007.8
20260905061156 78 47 0.0 0.0 0.00 0.00 0.00 85 1008.0
20260905060652 78 47 0.0 0.0 0.00 0.00 0.00 85 1008.3
20260905060148 79 47 0.0 0.0 0.00 0.00 0.00 85 1008.1
20260905055646 79 47 0.0 0.9 0.00 0.00 0.00 84 1008.3
20260905055142 79 47 0.0 0.0 0.00 0.00 0.00 84 1008.4
20260905054637 79 47 0.0 0.0 0.00 0.00 0.00 84 1008.3
20260905054133 79 47 0.0 0.0 0.00 0.00 0.00 84 1008.4
20260905053632 79 47 0.0 0.0 0.00 0.00 0.00 84 1008.5
20260905053128 79 47 0.0 0.0 0.00 0.00 0.00 84 1008.7
20260905052627 79 47 0.0 0.0 0.00 0.00 0.00 84 1008.5
20260905052122 79 47 0.0 0.0 0.00 0.00 0.00 83 1008.3
20260905051617 79 47 0.0 0.0 0.00 0.00 0.00 83 1008.8
20260905051114 79 47 0.0 0.0 0.00 0.00 0.00 83 1008.5
20260905050609 79 47 0.0 0.0 0.00 0.00 0.00 83 1008.7
20260905045601 80 48 0.0 0.0 0.00 0.00 0.00 83 1008.4
20260905045056 79 47 0.0 0.0 0.00 0.00 0.00 82 1008.7
20260905044555 79 47 0.0 0.0 0.00 0.00 0.00 82 1008.7
20260905044050 80 47 0.0 0.0 0.00 0.00 0.00 82 1008.7
20260905043549 80 47 0.0 0.0 0.00 0.00 0.00 82 1008.8
20260905043045 80 47 0.0 0.0 0.00 0.00 0.00 81 1008.9
20260905042543 80 47 0.0 0.0 0.00 0.00 0.00 81 1008.9
20260905042039 80 47 0.0 0.9 0.00 0.00 0.00 81 1008.8
20260905041534 80 47 0.0 0.0 0.00 0.00 0.00 81 1008.8
20260905041030 80 47 0.0 0.0 0.00 0.00 0.00 81 1008.7
20260905040529 80 47 0.0 0.0 0.00 0.00 0.00 81 1008.6
20260905040028 80 47 0.0 0.0 0.00 0.00 0.00 81 1008.7
20260905035523 80 47 0.0 0.0 0.00 0.00 0.00 80 1008.8
20260905035020 80 47 0.0 0.0 0.00 0.00 0.00 79 1008.9
20260905034516 80 47 0.0 0.0 0.00 0.00 0.00 79 1009.0
20260905034015 80 47 0.0 0.9 0.00 0.00 0.00 79 1008.9
20260905033509 81 47 0.0 0.0 0.00 0.00 0.00 78 1009.0
20260905033005 81 47 0.0 0.0 0.00 0.00 0.00 78 1009.1
20260905032500 81 47 0.0 0.0 0.00 0.00 0.00 77 1008.7
20260905031954 81 47 0.0 0.0 0.00 0.00 0.00 76 1009.0
20260905031450 82 47 0.0 0.0 0.00 0.00 0.00 76 1009.0
20260905030945 82 47 0.0 0.0 0.00 0.00 0.00 76 1009.1
20260905030440 82 47 0.0 0.9 0.00 0.00 0.00 76 1008.9
20260905025939 82 47 0.0 0.0 0.00 0.00 0.00 76 1009.1
20260905025435 82 47 0.0 0.0 0.00 0.00 0.00 75 1008.9
20260905024932 82 47 0.0 0.0 0.00 0.00 0.00 75 1009.0
20260905024431 82 47 0.0 0.9 0.00 0.00 0.00 75 1009.3
20260905023927 82 47 0.0 0.9 0.00 0.00 0.00 75 1009.0
20260905023422 82 47 0.0 0.0 0.00 0.00 0.00 75 1009.1
20260905022921 82 47 0.0 0.0 0.00 0.00 0.00 75 1009.0
20260905022417 82 47 0.0 0.9 0.00 0.00 0.00 75 1009.1
20260905021911 81 47 0.0 0.9 0.00 0.00 0.00 76 1009.1
20260905021406 80 46 0.0 0.0 0.00 0.00 0.00 78 1008.7
20260905020901 81 46 0.0 0.0 0.00 0.00 0.00 81 1008.8
20260905020400 81 46 0.0 0.0 0.00 0.00 0.00 81 1008.9
20260905015855 82 45 0.0 0.0 0.00 0.00 0.00 82 1008.7
20260905015354 82 45 0.0 0.0 0.00 0.00 0.00 82 1008.8
20260905014853 82 45 0.0 0.0 0.00 0.00 0.00 82 1009.2
20260905014349 82 45 0.0 0.0 0.00 0.00 0.00 82 1008.7
20260905013844 82 45 0.0 0.0 0.00 0.00 0.00 81 1008.8
20260905013340 82 45 0.0 0.0 0.00 0.00 0.00 81 1008.7
20260905012835 82 46 0.0 0.0 0.00 0.00 0.00 81 1008.7
20260905012330 83 46 0.0 0.0 0.00 0.00 0.00 81 1008.7
20260905011827 83 46 0.0 0.9 0.00 0.00 0.00 81 1008.7
20260905011328 83 45 0.0 0.0 0.00 0.00 0.00 80 1008.6
20260905010823 83 45 0.0 0.0 0.00 0.00 0.00 79 1008.6
20260905010318 84 45 0.0 0.0 0.00 0.00 0.00 79 1008.5
20260905005814 84 45 0.0 0.0 0.00 0.00 0.00 79 1008.5
20260905005309 84 45 0.9 0.9 0.00 0.00 0.00 78 1008.5
20260905004804 85 45 0.0 0.0 0.00 0.00 0.00 77 1008.8
20260905004259 85 45 0.0 0.0 0.00 0.00 0.00 76 1008.2
20260905003754 85 45 0.0 0.0 0.00 0.00 0.00 75 1008.4
20260905003250 86 45 0.0 0.0 0.00 0.00 0.00 74 1008.2
20260905002746 86 45 0.0 0.0 0.00 0.00 0.00 72 1008.3
20260905002245 87 45 0.0 0.0 0.00 0.00 0.00 71 1008.2
20260905001740 87 45 0.0 0.0 0.00 0.00 0.00 69 1007.9
20260905001239 87 45 0.0 0.0 0.00 0.00 0.00 68 1008.2
20260905000735 87 45 0.0 0.0 0.00 0.00 0.00 67 1008.0
20260905000233 88 45 0.0 0.0 0.00 0.00 0.00 66 1007.9
20260904235726 88 45 0.0 0.0 0.00 0.00 0.00 61 1007.9
20260904235220 88 46 0.0 0.0 0.00 0.00 0.00 58 1007.9
20260904234715 89 46 0.0 0.0 0.00 0.00 0.00 57 1007.7
20260904234211 90 46 0.0 0.0 0.00 0.00 0.00 56 1007.9
20260904233706 90 46 0.0 0.0 0.00 0.00 0.00 55 1007.9
20260904233202 91 46 0.0 0.0 0.00 0.00 0.00 55 1007.7
20260904232659 91 46 0.0 0.0 0.00 0.00 0.00 55 1007.8
20260904232155 91 46 0.0 0.0 0.00 0.00 0.00 54 1007.6
20260904231650 92 46 0.0 0.0 0.00 0.00 0.00 55 1007.8
20260904231145 92 46 0.0 0.0 0.00 0.00 0.00 54 1007.6
20260904230644 93 46 0.0 0.0 0.00 0.00 0.00 54 1007.8
20260904230140 93 46 0.0 0.0 0.00 0.00 0.00 53 1007.9
20260904225638 93 46 0.0 0.0 0.00 0.00 0.00 53 1007.8
20260904225133 93 46 0.0 0.0 0.00 0.00 0.00 52 1007.7
20260904224627 94 46 0.0 0.0 0.00 0.00 0.00 52 1007.7
20260904224122 94 46 0.0 0.9 0.00 0.00 0.00 51 1007.7
20260904223621 94 46 0.0 0.9 0.00 0.00 0.00 50 1007.5
20260904223116 94 47 0.0 0.0 0.00 0.00 0.00 52 1007.7
20260904222613 94 47 0.0 0.0 0.00 0.00 0.00 51 1007.4
20260904222108 94 47 0.0 0.0 0.00 0.00 0.00 50 1007.6
20260904221608 94 47 0.0 0.9 0.00 0.00 0.00 49 1007.7
20260904221108 94 47 0.0 0.9 0.00 0.00 0.00 49 1007.3
20260904220602 94 47 0.0 0.9 0.00 0.00 0.00 49 1007.5
20260904220058 94 46 0.0 0.9 0.00 0.00 0.00 50 1007.5
20260904215552 94 47 0.9 0.9 0.00 0.00 0.00 49 1007.7
20260904215048 94 49 0.0 0.0 0.00 0.00 0.00 51 1007.6
20260904214543 94 49 0.0 0.0 0.00 0.00 0.00 50 1007.5
20260904214038 94 50 0.0 1.7 0.00 0.00 0.00 50 1007.7
20260904213536 94 44 0.0 1.7 0.00 0.00 0.00 50 1007.9
20260904213034 94 60 0.9 1.7 0.00 0.00 0.00 50 1007.7
20260904212532 94 42 0.0 0.9 0.00 0.00 0.00 51 1007.8
20260904212028 94 50 0.9 0.9 0.00 0.00 0.00 50 1007.8
20260904211528 94 50 0.0 0.9 0.00 0.00 0.00 50 1007.6
20260904211023 94 51 0.0 0.9 0.00 0.00 0.00 51 1007.7
20260904210523 94 46 0.0 0.9 0.00 0.00 0.00 51 1007.8
20260904210019 95 34 0.9 0.9 0.00 0.00 0.00 51 1007.7
20260904205514 94 36 0.0 0.9 0.00 0.00 0.00 51 1007.7
20260904205011 95 42 0.0 1.7 0.00 0.00 0.00 50 1007.9
20260904204506 95 45 0.0 0.9 0.00 0.00 0.00 51 1008.1
20260904204002 94 49 0.9 1.7 0.00 0.00 0.00 51 1008.0
20260904203458 95 40 0.0 0.9 0.00 0.00 0.00 52 1008.2
20260904202954 94 47 0.9 0.9 0.00 0.00 0.00 51 1008.0
20260904202450 95 29 0.0 1.7 0.00 0.00 0.00 52 1008.3
20260904201946 95 43 0.9 4.3 0.00 0.00 0.00 52 1008.4
20260904201440 95 46 0.9 0.9 0.00 0.00 0.00 50 1008.5
20260904200936 95 32 0.0 0.9 0.00 0.00 0.00 50 1008.8
20260904200434 95 36 0.9 0.9 0.00 0.00 0.00 50 1008.7
20260904195930 95 35 0.9 0.9 0.00 0.00 0.00 51 1008.7
20260904195428 95 34 0.0 0.9 0.00 0.00 0.00 52 1008.7
20260904194927 95 38 0.0 1.7 0.00 0.00 0.00 52 1008.9
20260904194427 95 33 0.0 1.7 0.00 0.00 0.00 52 1008.9
20260904193922 95 39 0.9 1.7 0.00 0.00 0.00 52 1008.8
20260904193418 96 36 0.9 2.6 0.00 0.00 0.00 53 1009.2
20260904192914 95 22 0.0 2.6 0.00 0.00 0.00 53 1009.3
20260904192409 95 35 1.7 2.6 0.00 0.00 0.00 55 1009.4
20260904191905 96 55 1.7 4.3 0.00 0.00 0.00 54 1009.4
20260904191401 95 26 0.0 2.6 0.00 0.00 0.00 55 1009.3
20260904190857 95 30 0.0 1.7 0.00 0.00 0.00 56 1009.4
20260904190352 94 31 0.9 2.6 0.00 0.00 0.00 55 1009.6
20260904185849 94 31 1.7 2.6 0.00 0.00 0.00 56 1009.6
20260904185344 94 31 0.9 4.3 0.00 0.00 0.00 56 1009.7
20260904184844 94 32 0.0 6.1 0.00 0.00 0.00 56 1010.0
20260904184339 93 31 0.0 1.7 0.00 0.00 0.00 56 1010.1
20260904183834 93 43 0.9 2.6 0.00 0.00 0.00 56 1010.0
20260904183329 92 26 0.9 1.7 0.00 0.00 0.00 56 1009.9
20260904182824 92 56 1.7 1.7 0.00 0.00 0.00 56 1010.0
20260904182319 92 47 1.7 2.6 0.00 0.00 0.00 56 1010.0
20260904181815 92 40 0.9 1.7 0.00 0.00 0.00 56 1010.5
20260904181315 92 34 0.9 5.2 0.00 0.00 0.00 56 1010.0
20260904180810 92 28 0.9 1.7 0.00 0.00 0.00 56 1010.1
20260904180305 92 36 0.0 1.7 0.00 0.00 0.00 57 1010.1
20260904175804 91 33 0.0 1.7 0.00 0.00 0.00 57 1010.4
20260904175305 91 32 0.0 1.7 0.00 0.00 0.00 57 1010.1
20260904174758 91 27 0.9 1.7 0.00 0.00 0.00 56 1010.4
20260904174254 91 25 1.7 1.7 0.00 0.00 0.00 57 1010.5
20260904173749 90 27 0.0 1.7 0.00 0.00 0.00 57 1010.5
20260904173244 90 52 0.9 0.9 0.00 0.00 0.00 59 1010.5
20260904172741 90 22 0.9 0.9 0.00 0.00 0.00 60 1010.6
20260904172239 89 29 0.0 0.9 0.00 0.00 0.00 61 1010.5
20260904171734 89 51 1.7 1.7 0.00 0.00 0.00 62 1010.7
20260904171229 88 25 0.0 1.7 0.00 0.00 0.00 62 1010.6
20260904170726 89 35 0.9 1.7 0.00 0.00 0.00 62 1010.9
20260904170221 88 9 0.9 1.7 0.00 0.00 0.00 65 1010.8
20260904165720 88 37 0.0 1.7 0.00 0.00 0.00 65 1010.9
20260904165215 88 41 0.9 1.7 0.00 0.00 0.00 65 1010.8
20260904164709 88 39 0.9 1.7 0.00 0.00 0.00 65 1010.9
20260904164210 88 47 1.7 2.6 0.00 0.00 0.00 65 1011.2
20260904163706 88 56 1.7 1.7 0.00 0.00 0.00 66 1011.3
20260904163201 87 38 0.0 0.9 0.00 0.00 0.00 69 1011.4
20260904162700 87 18 0.9 1.7 0.00 0.00 0.00 70 1011.3
20260904162155 86 25 0.0 1.7 0.00 0.00 0.00 70 1011.5
20260904161651 86 32 0.0 0.9 0.00 0.00 0.00 70 1011.4
20260904161146 86 14 0.9 1.7 0.00 0.00 0.00 69 1011.6
20260904160642 86 5 0.9 0.9 0.00 0.00 0.00 69 1011.5
20260904160137 86 20 0.9 0.9 0.00 0.00 0.00 69 1011.6
20260904155632 86 26 0.9 0.9 0.00 0.00 0.00 69 1011.6
20260904155126 86 22 0.9 0.9 0.00 0.00 0.00 70 1011.9
20260904154625 86 40 0.0 0.9 0.00 0.00 0.00 71 1011.6
20260904154125 85 39 0.9 0.9 0.00 0.00 0.00 70 1011.8
20260904153620 85 42 0.0 0.9 0.00 0.00 0.00 70 1011.9
20260904153115 85 36 0.9 0.9 0.00 0.00 0.00 68 1011.9
20260904152612 84 49 0.9 2.6 0.00 0.00 0.00 69 1011.9
20260904152107 84 38 0.0 1.7 0.00 0.00 0.00 71 1011.9
20260904151602 84 39 0.9 1.7 0.00 0.00 0.00 76 1011.9
20260904151101 83 49 0.0 1.7 0.00 0.00 0.00 77 1012.0
20260904150556 83 56 0.9 1.7 0.00 0.00 0.00 77 1012.0
20260904150050 83 56 1.7 1.7 0.00 0.00 0.00 79 1011.8
20260904145549 83 41 1.7 2.6 0.00 0.00 0.00 80 1011.9
20260904145045 82 38 0.9 1.7 0.00 0.00 0.00 81 1011.9
20260904144541 82 56 1.7 1.7 0.00 0.00 0.00 82 1011.7
20260904144037 82 35 0.0 0.9 0.00 0.00 0.00 83 1011.7
20260904143532 81 17 0.0 0.9 0.00 0.00 0.00 84 1011.7
20260904143029 81 4 0.9 0.9 0.00 0.00 0.00 84 1011.7
20260904142525 81 40 0.9 1.7 0.00 0.00 0.00 85 1011.7
20260904142020 80 29 0.0 0.9 0.00 0.00 0.00 86 1011.7
20260904141515 80 37 0.9 1.7 0.00 0.00 0.00 86 1011.4
20260904141011 79 25 0.0 0.0 0.00 0.00 0.00 86 1011.7
20260904140511 79 16 0.0 0.9 0.00 0.00 0.00 87 1011.7
20260904140011 79 25 0.0 0.0 0.00 0.00 0.00 87 1011.6
20260904135510 79 23 0.0 0.9 0.00 0.00 0.00 88 1011.6
20260904135006 78 34 0.0 0.9 0.00 0.00 0.00 88 1011.8
20260904134501 78 31 0.0 0.0 0.00 0.00 0.00 89 1011.8
20260904133955 78 24 0.0 0.9 0.00 0.00 0.00 89 1011.6
20260904133449 78 26 0.9 0.9 0.00 0.00 0.00 89 1011.7
20260904132945 78 17 0.9 1.7 0.00 0.00 0.00 89 1011.9
20260904132440 78 22 0.9 1.7 0.00 0.00 0.00 89 1011.7
20260904131940 78 14 1.7 1.7 0.00 0.00 0.00 89 1011.8
20260904131435 78 37 0.0 0.0 0.00 0.00 0.00 90 1011.9
20260904130931 78 39 0.0 0.9 0.00 0.00 0.00 90 1011.8
20260904130430 77 13 0.9 0.9 0.00 0.00 0.00 90 1011.9
20260904125925 77 15 0.9 0.9 0.00 0.00 0.00 90 1011.8
20260904125421 77 32 0.9 0.9 0.00 0.00 0.00 90 1011.8
20260904124920 77 2 0.9 1.7 0.00 0.00 0.00 90 1011.9
20260904124417 77 8 0.9 1.7 0.00 0.00 0.00 90 1012.0
20260904123912 77 359 0.9 1.7 0.00 0.00 0.00 90 1012.0
20260904123407 77 4 0.9 1.7 0.00 0.00 0.00 90 1012.0
20260904122903 77 345 1.7 1.7 0.00 0.00 0.00 90 1011.9
20260904122402 77 3 0.9 1.7 0.00 0.00 0.00 90 1011.9
20260904121856 77 333 2.6 2.6 0.00 0.00 0.00 90 1012.0
20260904121353 77 333 1.7 1.7 0.00 0.00 0.00 90 1011.8
20260904120849 77 26 0.0 0.0 0.00 0.00 0.00 90 1012.0
20260904120345 77 6 0.9 0.9 0.00 0.00 0.00 90 1012.1
20260904115839 77 329 0.0 0.0 0.00 0.00 0.00 91 1011.9
20260904115335 76 337 0.0 0.0 0.00 0.00 0.00 91 1011.7
20260904114829 76 337 0.0 0.0 0.00 0.00 0.00 91 1011.8
20260904114324 76 342 0.0 0.0 0.00 0.00 0.00 91 1011.8
20260904113819 76 319 0.9 1.7 0.00 0.00 0.00 91 1011.7
20260904113319 76 344 0.0 0.0 0.00 0.00 0.00 91 1011.9
20260904112813 76 344 0.0 0.0 0.00 0.00 0.00 91 1011.9
20260904112309 76 344 0.0 0.9 0.00 0.00 0.00 91 1011.5
20260904111804 77 343 0.0 0.0 0.00 0.00 0.00 91 1011.6
20260904111300 76 341 0.0 0.9 0.00 0.00 0.00 91 1011.6
20260904110755 77 339 0.0 0.0 0.00 0.00 0.00 91 1011.4
20260904110254 76 346 0.0 0.9 0.00 0.00 0.00 91 1011.5
20260904105750 76 346 0.0 0.0 0.00 0.00 0.00 90 1011.6
20260904105244 76 347 0.0 0.0 0.00 0.00 0.00 90 1011.5
20260904104739 76 347 0.0 0.0 0.00 0.00 0.00 90 1011.3
20260904104235 76 347 0.0 0.0 0.00 0.00 0.00 90 1011.6
20260904103732 76 346 0.0 0.0 0.00 0.00 0.00 90 1011.1
20260904103226 76 346 0.0 0.0 0.00 0.00 0.00 90 1011.4
20260904102722 76 345 0.0 0.0 0.00 0.00 0.00 90 1011.1
20260904102218 76 344 0.0 0.0 0.00 0.00 0.00 90 1010.9
20260904101714 76 344 0.0 0.0 0.00 0.00 0.00 89 1011.0
20260904101209 76 343 0.0 0.0 0.00 0.00 0.00 89 1011.0
20260904100705 76 343 0.0 0.0 0.00 0.00 0.00 89 1011.0
20260904100201 76 343 0.0 0.0 0.00 0.00 0.00 89 1011.2
20260904095700 76 343 0.0 0.0 0.00 0.00 0.00 89 1010.8
20260904095155 76 343 0.0 0.0 0.00 0.00 0.00 89 1010.8
20260904094650 76 343 0.0 0.0 0.00 0.00 0.00 89 1010.8
20260904094145 76 343 0.0 0.0 0.00 0.00 0.00 89 1010.9
20260904093642 76 343 0.0 0.0 0.00 0.00 0.00 88 1010.8
20260904093141 77 343 0.0 0.0 0.00 0.00 0.00 88 1010.8
20260904092638 76 343 0.0 0.0 0.00 0.00 0.00 88 1010.7
20260904092133 77 343 0.0 0.0 0.00 0.00 0.00 88 1010.6
20260904091629 77 343 0.0 0.0 0.00 0.00 0.00 88 1010.6
20260904091129 77 343 0.0 0.0 0.00 0.00 0.00 88 1010.5
20260904090624 77 342 0.0 0.0 0.00 0.00 0.00 88 1010.4
20260904090121 77 342 0.0 0.0 0.00 0.00 0.00 87 1010.4
20260904085620 77 342 0.0 0.0 0.00 0.00 0.00 87 1010.4
20260904085120 77 343 0.0 0.0 0.00 0.00 0.00 87 1010.3
20260904084616 77 343 0.0 0.0 0.00 0.00 0.00 87 1010.3
20260904084112 77 344 0.0 0.0 0.00 0.00 0.00 87 1010.2
20260904083608 77 343 0.0 0.0 0.00 0.00 0.00 87 1010.1
20260904083103 77 343 0.0 0.0 0.00 0.00 0.00 87 1010.2
20260904082558 77 343 0.0 0.0 0.00 0.00 0.00 87 1010.2
20260904082054 77 343 0.0 0.0 0.00 0.00 0.00 87 1009.9
20260904081549 77 343 0.0 0.0 0.00 0.00 0.00 87 1010.0
20260904081044 77 343 0.0 0.0 0.00 0.00 0.00 86 1009.9
20260904080540 77 343 0.0 0.0 0.00 0.00 0.00 86 1010.1
20260904080036 77 343 0.0 0.0 0.00 0.00 0.00 86 1010.0
20260904075532 77 343 0.0 0.0 0.00 0.00 0.00 86 1010.1
20260904075026 77 343 0.0 0.0 0.00 0.00 0.00 86 1010.0
20260904074520 77 343 0.0 0.0 0.00 0.00 0.00 86 1009.9
20260904074020 77 343 0.0 0.0 0.00 0.00 0.00 86 1009.8
20260904073515 77 343 0.0 0.0 0.00 0.00 0.00 85 1009.8
20260904073012 77 343 0.0 0.0 0.00 0.00 0.00 85 1009.8
20260904072507 77 343 0.0 0.0 0.00 0.00 0.00 85 1010.1
20260904072002 77 343 0.0 0.0 0.00 0.00 0.00 85 1010.0
20260904071457 77 343 0.0 0.0 0.00 0.00 0.00 85 1010.3
20260904070952 78 343 0.0 0.0 0.00 0.00 0.00 85 1010.2
20260904070450 78 342 0.0 0.0 0.00 0.00 0.00 84 1010.0
20260904065945 78 342 0.0 0.0 0.00 0.00 0.00 84 1010.1
20260904065441 78 342 0.0 0.0 0.00 0.00 0.00 84 1010.2